IZA925 USII-ULLI

Flight info

Callsign IZA925
Flight time 2h 11m
Altitude 38000
Route USII/01 K0846F380 RULE1G RULEN N984 UDREM L93 SONAT M60 APSAS L259 PRIBI P979 BEPOL BEPO1V ULLI/28L
Aircraft B738/M-V/N

Departure

Time 2026-05-05 11:22
Airport Izhevsk Airport (USII)

Arrival

Time 2026-05-05 13:34
Airport Pulkovo Airport (ULLI)
Time Latitude Longitude Altitude Speed Heading
2026-05-05 11:11 56.83016 53.45206 536 ft 0 kts 206°
2026-05-05 11:19 56.83011 53.45202 536 ft 3 kts 206°
2026-05-05 11:19 56.82967 53.45172 537 ft 9 kts 191°
2026-05-05 11:19 56.82924 53.45213 537 ft 8 kts 122°
2026-05-05 11:20 56.82888 53.45342 537 ft 14 kts 99°
2026-05-05 11:20 56.82936 53.45449 536 ft 13 kts 49°
2026-05-05 11:20 56.82927 53.45610 536 ft 16 kts 116°
2026-05-05 11:20 56.82831 53.45669 535 ft 17 kts 202°
2026-05-05 11:21 56.82709 53.45569 538 ft 20 kts 205°
2026-05-05 11:21 56.82594 53.45438 541 ft 19 kts 222°
2026-05-05 11:21 56.82543 53.45410 544 ft 2 kts 85°
2026-05-05 11:21 56.82564 53.45447 542 ft 7 kts 31°
2026-05-05 11:22 56.82703 53.45564 538 ft 54 kts 25°
2026-05-05 11:22 56.83300 53.46071 533 ft 132 kts 25°
2026-05-05 11:22 56.84340 53.46936 619 ft 188 kts 23°
2026-05-05 11:22 56.85548 53.47974 1432 ft 192 kts 22°
2026-05-05 11:23 56.86717 53.48973 2496 ft 182 kts 22°
2026-05-05 11:23 56.87910 53.49997 3068 ft 202 kts 22°
2026-05-05 11:23 56.89274 53.51160 3360 ft 229 kts 22°
2026-05-05 11:23 56.90801 53.52461 3547 ft 253 kts 23°
2026-05-05 11:24 56.92440 53.53864 3942 ft 270 kts 23°
2026-05-05 11:24 56.94180 53.55342 4498 ft 280 kts 23°
2026-05-05 11:24 56.96010 53.56338 5318 ft 278 kts 359°
2026-05-05 11:24 56.97861 53.55710 6229 ft 269 kts 331°
2026-05-05 11:25 56.99337 53.53674 7006 ft 267 kts 308°
2026-05-05 11:25 57.00367 53.50842 7769 ft 267 kts 298°
2026-05-05 11:25 57.01281 53.47851 8566 ft 270 kts 297°
2026-05-05 11:25 57.02200 53.44822 9366 ft 273 kts 298°
2026-05-05 11:26 57.03136 53.41775 10110 ft 277 kts 298°
2026-05-05 11:26 57.04122 53.38589 10361 ft 299 kts 298°
2026-05-05 11:26 57.05195 53.35143 10553 ft 322 kts 298°
2026-05-05 11:26 57.06332 53.31483 10967 ft 335 kts 298°
2026-05-05 11:27 57.07493 53.27743 11662 ft 338 kts 298°
2026-05-05 11:27 57.08662 53.23975 12452 ft 340 kts 298°
2026-05-05 11:27 57.09836 53.20187 13189 ft 342 kts 298°
2026-05-05 11:27 57.11020 53.16359 13868 ft 346 kts 298°
2026-05-05 11:28 57.12216 53.12485 14489 ft 349 kts 298°
2026-05-05 11:28 57.13421 53.08579 15164 ft 351 kts 298°
2026-05-05 11:28 57.14631 53.04649 15819 ft 354 kts 298°
2026-05-05 11:28 57.15849 53.00682 16443 ft 357 kts 298°
2026-05-05 11:29 57.17077 52.96676 17073 ft 360 kts 298°
2026-05-05 11:29 57.18313 52.92641 17707 ft 363 kts 298°
2026-05-05 11:29 57.19558 52.88567 18306 ft 366 kts 298°
2026-05-05 11:29 57.20811 52.84460 18833 ft 369 kts 298°
2026-05-05 11:30 57.22072 52.80319 19373 ft 372 kts 298°
2026-05-05 11:30 57.23343 52.76138 19901 ft 374 kts 298°
2026-05-05 11:30 57.24605 52.71980 20383 ft 377 kts 298°
2026-05-05 11:30 57.25890 52.67740 20910 ft 380 kts 298°
2026-05-05 11:31 57.27185 52.63457 21421 ft 383 kts 298°
2026-05-05 11:31 57.28486 52.59146 21899 ft 386 kts 298°
2026-05-05 11:31 57.29798 52.54792 22393 ft 389 kts 298°
2026-05-05 11:31 57.31117 52.50405 22869 ft 392 kts 298°
2026-05-05 11:32 57.32446 52.45979 23351 ft 394 kts 298°
2026-05-05 11:32 57.33778 52.41529 23754 ft 397 kts 298°
2026-05-05 11:32 57.35119 52.37048 24149 ft 399 kts 298°
2026-05-05 11:32 57.36464 52.32541 24528 ft 401 kts 298°
2026-05-05 11:33 57.37815 52.28007 24913 ft 403 kts 298°
2026-05-05 11:33 57.39173 52.23441 25289 ft 405 kts 298°
2026-05-05 11:33 57.40538 52.18855 25645 ft 407 kts 298°
2026-05-05 11:33 57.42101 52.14453 25992 ft 411 kts 305°
2026-05-05 11:34 57.43846 52.10215 26356 ft 413 kts 307°
2026-05-05 11:34 57.45640 52.06035 26709 ft 415 kts 307°
2026-05-05 11:34 57.47451 52.01839 27052 ft 417 kts 307°
2026-05-05 11:34 57.49260 51.97609 27373 ft 419 kts 307°
2026-05-05 11:35 57.51068 51.93332 27709 ft 421 kts 306°
2026-05-05 11:35 57.52870 51.89026 28028 ft 423 kts 306°
2026-05-05 11:35 57.54674 51.84679 28325 ft 425 kts 306°
2026-05-05 11:35 57.56480 51.80307 28643 ft 427 kts 306°
2026-05-05 11:36 57.58268 51.75963 28941 ft 429 kts 306°
2026-05-05 11:36 57.60107 51.71486 29231 ft 431 kts 306°
2026-05-05 11:36 57.61906 51.67098 29500 ft 432 kts 306°
2026-05-05 11:36 57.63733 51.62633 29799 ft 433 kts 305°
2026-05-05 11:37 57.65559 51.58163 30148 ft 432 kts 305°
2026-05-05 11:37 57.67376 51.53708 30548 ft 430 kts 305°
2026-05-05 11:37 57.69184 51.49266 30875 ft 429 kts 305°
2026-05-05 11:37 57.70990 51.44822 31153 ft 429 kts 305°
2026-05-05 11:38 57.72794 51.40374 31459 ft 428 kts 305°
2026-05-05 11:38 57.74590 51.35936 31798 ft 427 kts 305°
2026-05-05 11:38 57.76382 51.31501 32110 ft 426 kts 305°
2026-05-05 11:38 57.78170 51.27067 32408 ft 426 kts 305°
2026-05-05 11:39 57.79956 51.22630 32696 ft 426 kts 304°
2026-05-05 11:39 57.81736 51.18202 33012 ft 425 kts 304°
2026-05-05 11:39 57.83508 51.13783 33325 ft 423 kts 304°
2026-05-05 11:39 57.85277 51.09363 33599 ft 423 kts 304°
2026-05-05 11:40 57.87040 51.04950 33866 ft 422 kts 304°
2026-05-05 11:40 57.88801 51.00535 34097 ft 422 kts 304°
2026-05-05 11:40 57.90561 50.96112 34298 ft 422 kts 304°
2026-05-05 11:40 57.92321 50.91684 34500 ft 422 kts 304°
2026-05-05 11:41 57.94077 50.87255 34728 ft 422 kts 304°
2026-05-05 11:41 57.95828 50.82831 34934 ft 422 kts 304°
2026-05-05 11:41 57.97581 50.78396 35119 ft 422 kts 304°
2026-05-05 11:41 57.99332 50.73956 35321 ft 422 kts 304°
2026-05-05 11:42 58.01079 50.69517 35522 ft 421 kts 304°
2026-05-05 11:42 58.02802 50.65136 35705 ft 422 kts 304°
2026-05-05 11:42 58.04547 50.60689 35877 ft 422 kts 304°
2026-05-05 11:42 58.06290 50.56237 36067 ft 422 kts 304°
2026-05-05 11:43 58.08033 50.51782 36269 ft 421 kts 304°
2026-05-05 11:43 58.09796 50.47266 36443 ft 421 kts 304°
2026-05-05 11:43 58.11514 50.42862 36591 ft 422 kts 304°
2026-05-05 11:43 58.13253 50.38397 36764 ft 422 kts 304°
2026-05-05 11:44 58.14991 50.33924 36936 ft 421 kts 304°
2026-05-05 11:44 58.16815 50.29565 37059 ft 423 kts 307°
2026-05-05 11:44 58.18744 50.25347 37219 ft 424 kts 309°
2026-05-05 11:44 58.20702 50.21171 37380 ft 424 kts 309°
2026-05-05 11:45 58.22659 50.16977 37529 ft 424 kts 308°
2026-05-05 11:45 58.24596 50.12761 37666 ft 424 kts 308°
2026-05-05 11:45 58.26523 50.08526 37748 ft 424 kts 308°
2026-05-05 11:46 58.30387 49.99995 37749 ft 426 kts 308°
2026-05-05 11:46 58.34243 49.91467 37744 ft 424 kts 308°
2026-05-05 11:47 58.38080 49.82951 37744 ft 422 kts 308°
2026-05-05 11:47 58.41894 49.74454 37741 ft 421 kts 308°
2026-05-05 11:48 58.47581 49.61724 37737 ft 419 kts 307°
2026-05-05 11:48 58.51354 49.53241 37728 ft 418 kts 307°
2026-05-05 11:49 58.55117 49.44754 37731 ft 418 kts 307°
2026-05-05 11:49 58.59341 49.37171 37730 ft 423 kts 321°
2026-05-05 11:50 58.64581 49.31854 37732 ft 429 kts 332°
2026-05-05 11:50 58.70022 49.27125 37725 ft 429 kts 331°
2026-05-05 11:51 58.75425 49.22229 37715 ft 430 kts 330°
2026-05-05 11:51 58.80822 49.17236 37709 ft 430 kts 330°
2026-05-05 11:52 58.86229 49.12231 37699 ft 431 kts 330°
2026-05-05 11:52 58.91640 49.07184 37698 ft 432 kts 330°
2026-05-05 11:53 58.97043 49.02066 37696 ft 433 kts 329°
2026-05-05 11:53 59.02448 48.96929 37691 ft 433 kts 329°
2026-05-05 11:54 59.07864 48.91770 37681 ft 433 kts 329°
2026-05-05 11:54 59.13246 48.86628 37678 ft 434 kts 329°
2026-05-05 11:55 59.18420 48.80805 37656 ft 424 kts 311°
2026-05-05 11:55 59.20264 48.76407 37671 ft 417 kts 298°
2026-05-05 11:55 59.21492 48.71332 37702 ft 412 kts 285°
2026-05-05 11:56 59.22758 48.60443 37690 ft 411 kts 280°
2026-05-05 11:56 59.23837 48.49455 37673 ft 413 kts 279°
2026-05-05 11:57 59.24939 48.38440 37669 ft 414 kts 280°
2026-05-05 11:57 59.26070 48.27400 37670 ft 415 kts 280°
2026-05-05 11:58 59.27210 48.16323 37673 ft 416 kts 280°
2026-05-05 11:58 59.28347 48.05208 37670 ft 417 kts 280°
2026-05-05 11:59 59.29477 47.94060 37676 ft 418 kts 280°
2026-05-05 11:59 59.30599 47.82879 37670 ft 419 kts 279°
2026-05-05 12:00 59.31713 47.71676 37671 ft 419 kts 279°
2026-05-05 12:00 59.32816 47.60474 37675 ft 419 kts 279°
2026-05-05 12:01 59.33910 47.49270 37670 ft 419 kts 279°
2026-05-05 12:01 59.34986 47.38141 37673 ft 418 kts 279°
2026-05-05 12:02 59.36057 47.26955 37669 ft 417 kts 279°
2026-05-05 12:02 59.37116 47.15783 37679 ft 416 kts 279°
2026-05-05 12:03 59.38164 47.04631 37685 ft 416 kts 279°
2026-05-05 12:03 59.39202 46.93467 37675 ft 415 kts 279°
2026-05-05 12:04 59.40228 46.82325 37678 ft 415 kts 279°
2026-05-05 12:04 59.41244 46.71183 37684 ft 415 kts 278°
2026-05-05 12:05 59.42082 46.61919 37684 ft 415 kts 278°
2026-05-05 12:05 59.43081 46.50760 37681 ft 415 kts 278°
2026-05-05 12:06 59.44071 46.39592 37685 ft 415 kts 278°
2026-05-05 12:06 59.45051 46.28414 37684 ft 415 kts 278°
2026-05-05 12:07 59.46024 46.17210 37690 ft 416 kts 278°
2026-05-05 12:07 59.46988 46.05991 37695 ft 416 kts 278°
2026-05-05 12:08 59.47945 45.94739 37686 ft 417 kts 278°
2026-05-05 12:08 59.48892 45.83478 37687 ft 418 kts 278°
2026-05-05 12:09 59.49832 45.72186 37687 ft 418 kts 278°
2026-05-05 12:09 59.50757 45.60953 37685 ft 419 kts 278°
2026-05-05 12:10 59.51680 45.49623 37693 ft 419 kts 277°
2026-05-05 12:10 59.52448 45.38249 37683 ft 419 kts 276°
2026-05-05 12:11 59.53129 45.26851 37690 ft 419 kts 276°
2026-05-05 12:11 59.53817 45.15448 37689 ft 419 kts 276°
2026-05-05 12:12 59.54509 45.04048 37687 ft 419 kts 276°
2026-05-05 12:12 59.55194 44.92651 37701 ft 418 kts 276°
2026-05-05 12:13 59.55868 44.81278 37690 ft 418 kts 276°
2026-05-05 12:13 59.56561 44.69900 37687 ft 417 kts 277°
2026-05-05 12:14 59.57386 44.58575 37689 ft 417 kts 277°
2026-05-05 12:14 59.58212 44.47277 37692 ft 416 kts 277°
2026-05-05 12:15 59.59013 44.35973 37692 ft 415 kts 277°
2026-05-05 12:15 59.59796 44.24680 37698 ft 415 kts 277°
2026-05-05 12:16 59.60564 44.13476 37697 ft 414 kts 276°
2026-05-05 12:16 59.61326 44.02194 37698 ft 414 kts 276°
2026-05-05 12:17 59.62076 43.90922 37702 ft 414 kts 276°
2026-05-05 12:17 59.62816 43.79651 37701 ft 414 kts 276°
2026-05-05 12:18 59.63548 43.68374 37700 ft 414 kts 276°
2026-05-05 12:18 59.64270 43.57094 37708 ft 414 kts 276°
2026-05-05 12:19 59.64983 43.45802 37707 ft 414 kts 276°
2026-05-05 12:19 59.65687 43.34494 37708 ft 414 kts 276°
2026-05-05 12:20 59.66381 43.23188 37711 ft 414 kts 276°
2026-05-05 12:20 59.67066 43.11863 37713 ft 415 kts 275°
2026-05-05 12:21 59.67742 43.00524 37716 ft 415 kts 275°
2026-05-05 12:21 59.68408 42.89176 37717 ft 415 kts 275°
2026-05-05 12:22 59.69061 42.77885 37716 ft 416 kts 275°
2026-05-05 12:22 59.69711 42.66515 37716 ft 416 kts 275°
2026-05-05 12:23 59.70335 42.55125 37715 ft 416 kts 275°
2026-05-05 12:23 59.70928 42.43736 37722 ft 416 kts 274°
2026-05-05 12:24 59.71514 42.32334 37721 ft 416 kts 274°
2026-05-05 12:24 59.72093 42.20929 37724 ft 416 kts 274°
2026-05-05 12:25 59.72663 42.09524 37726 ft 416 kts 274°
2026-05-05 12:25 59.73222 41.98121 37723 ft 416 kts 274°
2026-05-05 12:26 59.73772 41.86716 37727 ft 415 kts 274°
2026-05-05 12:26 59.74312 41.75323 37732 ft 415 kts 274°
2026-05-05 12:27 59.74842 41.63935 37729 ft 415 kts 274°
2026-05-05 12:27 59.75560 41.52585 37732 ft 415 kts 277°
2026-05-05 12:28 59.76527 41.41303 37737 ft 415 kts 278°
2026-05-05 12:28 59.77498 41.30021 37731 ft 414 kts 277°
2026-05-05 12:29 59.78436 41.18746 37736 ft 414 kts 277°
2026-05-05 12:29 59.79347 41.07532 37733 ft 414 kts 277°
2026-05-05 12:30 59.80250 40.96241 37738 ft 414 kts 277°
2026-05-05 12:30 59.81142 40.84957 37736 ft 414 kts 277°
2026-05-05 12:31 59.82025 40.73666 37740 ft 413 kts 277°
2026-05-05 12:31 59.82898 40.62373 37737 ft 414 kts 276°
2026-05-05 12:32 59.83763 40.51059 37743 ft 414 kts 276°
2026-05-05 12:32 59.84617 40.39746 37741 ft 414 kts 276°
2026-05-05 12:33 59.85462 40.28425 37739 ft 414 kts 276°
2026-05-05 12:33 59.86298 40.17082 37741 ft 414 kts 276°
2026-05-05 12:34 59.87125 40.05727 37743 ft 415 kts 276°
2026-05-05 12:34 59.87943 39.94364 37745 ft 415 kts 276°
2026-05-05 12:35 59.88752 39.82985 37746 ft 415 kts 276°
2026-05-05 12:35 59.89545 39.71671 37744 ft 415 kts 276°
2026-05-05 12:36 59.90335 39.60273 37743 ft 415 kts 276°
2026-05-05 12:36 59.91115 39.48874 37744 ft 415 kts 275°
2026-05-05 12:37 59.91886 39.37468 37743 ft 415 kts 275°
2026-05-05 12:37 59.91966 39.26043 37749 ft 412 kts 260°
2026-05-05 12:38 59.90836 39.14884 37738 ft 411 kts 257°
2026-05-05 12:38 59.89647 39.03750 37740 ft 411 kts 257°
2026-05-05 12:39 59.88474 38.92615 37752 ft 411 kts 257°
2026-05-05 12:39 59.87306 38.81484 37764 ft 411 kts 257°
2026-05-05 12:40 59.86130 38.70353 37743 ft 411 kts 257°
2026-05-05 12:40 59.84953 38.59303 37755 ft 411 kts 257°
2026-05-05 12:41 59.83759 38.48194 37750 ft 411 kts 257°
2026-05-05 12:41 59.82556 38.37090 37751 ft 411 kts 257°
2026-05-05 12:42 59.81345 38.25995 37754 ft 411 kts 257°
2026-05-05 12:42 59.80590 38.14783 37751 ft 412 kts 271°
2026-05-05 12:43 59.81672 38.03598 37731 ft 418 kts 289°
2026-05-05 12:43 59.84084 37.93045 37745 ft 420 kts 291°
2026-05-05 12:44 59.86574 37.82545 37752 ft 420 kts 291°
2026-05-05 12:44 59.89024 37.71996 37753 ft 420 kts 291°
2026-05-05 12:45 59.91444 37.61404 37748 ft 420 kts 290°
2026-05-05 12:45 59.93832 37.50868 37752 ft 420 kts 290°
2026-05-05 12:46 59.96227 37.40248 37746 ft 420 kts 290°
2026-05-05 12:46 59.98615 37.29609 37747 ft 419 kts 290°
2026-05-05 12:47 60.00993 37.18962 37736 ft 419 kts 290°
2026-05-05 12:47 60.03361 37.08312 37736 ft 419 kts 290°
2026-05-05 12:48 60.05719 36.97651 37730 ft 418 kts 290°
2026-05-05 12:48 60.08059 36.86984 37734 ft 418 kts 289°
2026-05-05 12:49 60.10389 36.76310 37729 ft 418 kts 289°
2026-05-05 12:49 60.12731 36.65647 37728 ft 418 kts 290°
2026-05-05 12:50 60.15079 36.55071 37721 ft 417 kts 290°
2026-05-05 12:50 60.17432 36.44417 37718 ft 417 kts 290°
2026-05-05 12:51 60.19772 36.33753 37721 ft 417 kts 289°
2026-05-05 12:51 60.22101 36.23071 37715 ft 417 kts 289°
2026-05-05 12:52 60.24419 36.12383 37715 ft 417 kts 289°
2026-05-05 12:52 60.26729 36.01679 37714 ft 417 kts 289°
2026-05-05 12:53 60.29031 35.90957 37718 ft 416 kts 289°
2026-05-05 12:53 60.31323 35.80224 37707 ft 417 kts 289°
2026-05-05 12:54 60.34360 35.65919 37710 ft 417 kts 289°
2026-05-05 12:55 60.36631 35.55155 37709 ft 417 kts 289°
2026-05-05 12:55 60.38897 35.44363 37708 ft 417 kts 289°
2026-05-05 12:56 60.41152 35.33571 37709 ft 417 kts 289°
2026-05-05 12:56 60.43372 35.22754 37706 ft 415 kts 284°
2026-05-05 12:57 60.44178 35.11373 37706 ft 406 kts 266°
2026-05-05 12:57 60.43240 35.00182 37535 ft 406 kts 255°
2026-05-05 12:57 60.42531 34.94690 37080 ft 408 kts 255°
2026-05-05 12:58 60.41803 34.89139 36508 ft 406 kts 254°
2026-05-05 12:58 60.41083 34.83631 36006 ft 403 kts 255°
2026-05-05 12:58 60.40376 34.78183 35631 ft 398 kts 255°
2026-05-05 12:58 60.39681 34.72796 35212 ft 394 kts 255°
2026-05-05 12:59 60.38995 34.67463 34808 ft 390 kts 255°
2026-05-05 12:59 60.38316 34.62182 34405 ft 386 kts 255°
2026-05-05 12:59 60.37644 34.56961 34017 ft 382 kts 255°
2026-05-05 13:00 60.36313 34.46672 33162 ft 375 kts 255°
2026-05-05 13:00 60.35657 34.41619 32775 ft 370 kts 254°
2026-05-05 13:01 60.33721 34.26817 31623 ft 357 kts 254°
2026-05-05 13:01 60.33088 34.22005 31248 ft 353 kts 254°
2026-05-05 13:01 60.32458 34.17237 30872 ft 350 kts 254°
2026-05-05 13:01 60.31833 34.12515 30500 ft 346 kts 254°
2026-05-05 13:02 60.31212 34.07844 30136 ft 343 kts 254°
2026-05-05 13:02 60.30602 34.03269 29766 ft 340 kts 254°
2026-05-05 13:02 60.29990 33.98686 29380 ft 336 kts 254°
2026-05-05 13:02 60.29383 33.94161 29019 ft 332 kts 254°
2026-05-05 13:03 60.28782 33.89689 28654 ft 329 kts 254°
2026-05-05 13:03 60.28185 33.85258 28279 ft 326 kts 254°
2026-05-05 13:03 60.27592 33.80875 27942 ft 323 kts 254°
2026-05-05 13:03 60.27003 33.76532 27578 ft 320 kts 254°
2026-05-05 13:04 60.26419 33.72230 27218 ft 317 kts 254°
2026-05-05 13:04 60.25838 33.67967 26865 ft 314 kts 254°
2026-05-05 13:04 60.25260 33.63743 26512 ft 312 kts 254°
2026-05-05 13:04 60.24686 33.59550 26167 ft 310 kts 254°
2026-05-05 13:05 60.24114 33.55392 25837 ft 307 kts 254°
2026-05-05 13:05 60.23545 33.51259 25486 ft 305 kts 254°
2026-05-05 13:05 60.22979 33.47157 25150 ft 303 kts 254°
2026-05-05 13:05 60.22414 33.43077 24817 ft 302 kts 254°
2026-05-05 13:06 60.21851 33.39020 24477 ft 300 kts 254°
2026-05-05 13:06 60.21291 33.34991 24155 ft 298 kts 254°
2026-05-05 13:06 60.20731 33.30980 23819 ft 297 kts 254°
2026-05-05 13:06 60.20175 33.26991 23492 ft 296 kts 254°
2026-05-05 13:07 60.19624 33.23063 23145 ft 295 kts 254°
2026-05-05 13:07 60.19069 33.19117 22796 ft 292 kts 254°
2026-05-05 13:07 60.18518 33.15208 22481 ft 289 kts 254°
2026-05-05 13:07 60.17972 33.11343 22217 ft 287 kts 254°
2026-05-05 13:08 60.17420 33.07452 21957 ft 292 kts 254°
2026-05-05 13:08 60.16859 33.03504 21697 ft 296 kts 254°
2026-05-05 13:08 60.16293 32.99530 21433 ft 294 kts 254°
2026-05-05 13:08 60.15734 32.95607 21124 ft 290 kts 254°
2026-05-05 13:09 60.15181 32.91739 20796 ft 287 kts 254°
2026-05-05 13:09 60.14633 32.87908 20478 ft 284 kts 254°
2026-05-05 13:09 60.14089 32.84125 20150 ft 281 kts 253°
2026-05-05 13:09 60.13550 32.80379 19831 ft 278 kts 253°
2026-05-05 13:10 60.13016 32.76674 19523 ft 275 kts 253°
2026-05-05 13:10 60.12485 32.73000 19200 ft 273 kts 253°
2026-05-05 13:10 60.11958 32.69360 18899 ft 270 kts 253°
2026-05-05 13:10 60.11434 32.65752 18578 ft 268 kts 253°
2026-05-05 13:11 60.10914 32.62171 18279 ft 266 kts 253°
2026-05-05 13:11 60.10396 32.58619 17969 ft 265 kts 253°
2026-05-05 13:11 60.09881 32.55096 17634 ft 262 kts 253°
2026-05-05 13:11 60.09372 32.51615 17338 ft 259 kts 253°
2026-05-05 13:12 60.08867 32.48172 17056 ft 256 kts 253°
2026-05-05 13:12 60.08368 32.44773 16759 ft 253 kts 253°
2026-05-05 13:12 60.07873 32.41405 16455 ft 252 kts 253°
2026-05-05 13:12 60.07376 32.38038 16167 ft 253 kts 253°
2026-05-05 13:13 60.06872 32.34632 15859 ft 257 kts 253°
2026-05-05 13:13 60.06356 32.31151 15564 ft 264 kts 253°
2026-05-05 13:13 60.05815 32.27609 15236 ft 266 kts 252°
2026-05-05 13:13 60.05228 32.24109 14897 ft 264 kts 251°
2026-05-05 13:14 60.04633 32.20647 14599 ft 262 kts 251°
2026-05-05 13:14 60.04041 32.17217 14284 ft 260 kts 251°
2026-05-05 13:14 60.03456 32.13818 13992 ft 257 kts 252°
2026-05-05 13:14 60.02877 32.10452 13689 ft 255 kts 251°
2026-05-05 13:15 60.02303 32.07115 13378 ft 253 kts 251°
2026-05-05 13:15 60.01734 32.03805 13063 ft 250 kts 251°
2026-05-05 13:15 60.01179 32.00575 12781 ft 248 kts 251°
2026-05-05 13:15 60.00620 31.97333 12483 ft 245 kts 251°
2026-05-05 13:16 60.00058 31.94072 12207 ft 242 kts 251°
2026-05-05 13:16 59.99517 31.90935 11906 ft 241 kts 251°
2026-05-05 13:16 59.98966 31.87752 11611 ft 239 kts 251°
2026-05-05 13:16 59.98432 31.84665 11322 ft 239 kts 251°
2026-05-05 13:17 59.97877 31.81465 11030 ft 243 kts 251°
2026-05-05 13:17 59.97327 31.78292 10740 ft 248 kts 251°
2026-05-05 13:17 59.96752 31.74993 10434 ft 255 kts 250°
2026-05-05 13:17 59.96167 31.71642 10117 ft 255 kts 250°
2026-05-05 13:18 59.95591 31.68348 9995 ft 247 kts 250°
2026-05-05 13:18 59.95032 31.65160 9845 ft 240 kts 250°
2026-05-05 13:18 59.94490 31.62073 9735 ft 232 kts 250°
2026-05-05 13:18 59.93957 31.59049 9465 ft 230 kts 250°
2026-05-05 13:19 59.93430 31.56055 9223 ft 228 kts 250°
2026-05-05 13:19 59.92906 31.53091 8969 ft 225 kts 249°
2026-05-05 13:19 59.92388 31.50160 8704 ft 223 kts 250°
2026-05-05 13:19 59.91874 31.47254 8451 ft 221 kts 249°
2026-05-05 13:20 59.91364 31.44376 8213 ft 219 kts 249°
2026-05-05 13:20 59.90860 31.41532 7959 ft 217 kts 249°
2026-05-05 13:20 59.90358 31.38710 7714 ft 216 kts 249°
2026-05-05 13:20 59.89851 31.35861 7480 ft 221 kts 249°
2026-05-05 13:21 59.89329 31.32937 7220 ft 228 kts 249°
2026-05-05 13:21 59.88793 31.29925 6961 ft 233 kts 249°
2026-05-05 13:21 59.88249 31.26878 6682 ft 233 kts 249°
2026-05-05 13:21 59.87706 31.23844 6402 ft 232 kts 249°
2026-05-05 13:22 59.87162 31.20818 6133 ft 232 kts 249°
2026-05-05 13:22 59.86628 31.17851 5946 ft 219 kts 249°
2026-05-05 13:22 59.86148 31.15089 5690 ft 207 kts 250°
2026-05-05 13:22 59.85739 31.12434 5479 ft 194 kts 251°
2026-05-05 13:23 59.85365 31.09958 5299 ft 180 kts 251°
2026-05-05 13:23 59.85008 31.07601 5154 ft 176 kts 251°
2026-05-05 13:23 59.84665 31.05345 5178 ft 173 kts 251°
2026-05-05 13:23 59.84310 31.03020 5119 ft 180 kts 251°
2026-05-05 13:24 59.83942 31.00612 4979 ft 183 kts 251°
2026-05-05 13:24 59.83568 30.98186 4832 ft 184 kts 251°
2026-05-05 13:24 59.83228 30.95969 4697 ft 180 kts 251°
2026-05-05 13:24 59.82865 30.93611 4544 ft 176 kts 251°
2026-05-05 13:25 59.82509 30.91289 4407 ft 175 kts 252°
2026-05-05 13:25 59.82144 30.88957 4264 ft 178 kts 251°
2026-05-05 13:25 59.81785 30.86639 4113 ft 171 kts 252°
2026-05-05 13:25 59.81449 30.84458 3973 ft 160 kts 252°
2026-05-05 13:26 59.81121 30.82350 3849 ft 161 kts 252°
2026-05-05 13:26 59.80792 30.80234 3699 ft 159 kts 252°
2026-05-05 13:26 59.80469 30.78155 3583 ft 156 kts 252°
2026-05-05 13:26 59.80129 30.76142 3486 ft 152 kts 245°
2026-05-05 13:27 59.79649 30.74313 3371 ft 150 kts 243°
2026-05-05 13:27 59.79141 30.72474 3298 ft 154 kts 243°
2026-05-05 13:27 59.78620 30.70579 3206 ft 158 kts 243°
2026-05-05 13:27 59.78086 30.68633 3092 ft 162 kts 243°
2026-05-05 13:28 59.77555 30.66690 2999 ft 159 kts 243°
2026-05-05 13:28 59.77033 30.64780 2917 ft 157 kts 243°
2026-05-05 13:28 59.76509 30.62866 2792 ft 158 kts 243°
2026-05-05 13:28 59.75993 30.60982 2693 ft 154 kts 243°
2026-05-05 13:29 59.75474 30.59079 2605 ft 160 kts 243°
2026-05-05 13:29 59.75013 30.57069 2490 ft 157 kts 264°
2026-05-05 13:29 59.75266 30.55052 2445 ft 152 kts 285°
2026-05-05 13:29 59.75452 30.53013 2326 ft 151 kts 280°
2026-05-05 13:30 59.75733 30.51007 2193 ft 149 kts 281°
2026-05-05 13:30 59.75996 30.49042 2082 ft 145 kts 282°
2026-05-05 13:30 59.76265 30.47149 2018 ft 140 kts 282°
2026-05-05 13:30 59.76523 30.45349 1885 ft 129 kts 285°
2026-05-05 13:31 59.76776 30.43631 1712 ft 129 kts 284°
2026-05-05 13:31 59.77018 30.41959 1542 ft 123 kts 285°
2026-05-05 13:31 59.77261 30.40321 1355 ft 123 kts 284°
2026-05-05 13:31 59.77501 30.38696 1203 ft 124 kts 285°
2026-05-05 13:32 59.77746 30.37029 1025 ft 127 kts 285°
2026-05-05 13:32 59.77997 30.35346 808 ft 128 kts 283°
2026-05-05 13:32 59.78237 30.33641 686 ft 134 kts 285°
2026-05-05 13:32 59.78506 30.31824 503 ft 138 kts 288°
2026-05-05 13:33 59.78777 30.30008 304 ft 138 kts 288°
2026-05-05 13:33 59.79046 30.28177 138 ft 139 kts 288°
2026-05-05 13:33 59.79312 30.26414 82 ft 116 kts 287°
2026-05-05 13:33 59.79478 30.25299 84 ft 52 kts 286°
2026-05-05 13:34 59.79570 30.24683 87 ft 43 kts 286°
2026-05-05 13:34 59.79650 30.24156 87 ft 37 kts 287°
2026-05-05 13:34 59.79717 30.23690 84 ft 33 kts 286°
2026-05-05 13:34 59.79794 30.23295 85 ft 29 kts 302°
2026-05-05 13:35 59.79933 30.23021 84 ft 27 kts 340°
2026-05-05 13:35 59.79979 30.23159 82 ft 12 kts 113°
2026-05-05 13:35 59.79943 30.23368 87 ft 21 kts 104°
2026-05-05 13:35 59.79893 30.23707 83 ft 28 kts 106°
2026-05-05 13:36 59.79838 30.24075 85 ft 27 kts 107°
2026-05-05 13:36 59.79787 30.24421 83 ft 25 kts 107°
2026-05-05 13:36 59.79738 30.24743 86 ft 23 kts 107°
2026-05-05 13:36 59.79694 30.25047 85 ft 23 kts 105°
2026-05-05 13:37 59.79651 30.25342 84 ft 22 kts 107°
2026-05-05 13:37 59.79608 30.25629 85 ft 21 kts 107°
2026-05-05 13:37 59.79570 30.25924 85 ft 22 kts 85°
2026-05-05 13:37 59.79670 30.26052 85 ft 17 kts 28°
2026-05-05 13:38 59.79782 30.26128 82 ft 14 kts 16°
2026-05-05 13:38 59.79790 30.26133 81 ft 0 kts 16°
2026-05-05 13:38 59.79782 30.26128 82 ft 2 kts 19°
2026-05-05 13:39 59.79769 30.26120 81 ft 2 kts 21°
2026-05-05 13:39 59.79757 30.26106 81 ft 2 kts 51°
2026-05-05 13:39 59.79752 30.26091 86 ft 2 kts 76°
2026-05-05 13:39 59.79751 30.26064 83 ft 2 kts 104°
2026-05-05 13:40 59.79755 30.26039 85 ft 2 kts 112°
2026-05-05 13:40 59.79760 30.26013 86 ft 2 kts 103°
2026-05-05 13:40 59.79763 30.25986 86 ft 2 kts 106°
2026-05-05 13:40 59.79766 30.25964 85 ft 1 kts 106°
2026-05-05 13:41 59.79766 30.25963 85 ft 0 kts 106°